Location: *
(1.3500°S, 147.5000°W)
Time: 16:43:38
(UTC+00:00)

Cosmos 1331 Rocket - Pass Details

Date: 07 April 2020
Orbit: 750 x 777 km, 74.0° (Epoch: 25 May)

Event Time Altitude Azimuth Distance (km) Brightness Sun altitude
Rises 04:31:52 0° 352° (N) 3,183 7.4 -10.0°
Reaches altitude 10° 04:34:14 10° 355° (N) 2,265 6.6 -10.6°
Maximum altitude 04:39:20 69° 78° (ENE) 807 3.9 -11.9°
Drops below altitude 10° 04:44:29 10° 161° (SSE) 2,291 6.2 -13.2°
Sets 04:46:53 0° 163° (SSE) 3,223 7.0 -13.8°
